Location: Albuquerque Trailhead
(34.7934°N, 106.3736°W)
Time: 12:03:01
(UTC+00:00)

ARIANE 5 R/B - Pass Details

Date: 20 June 2021
Orbit: 620 x 656 km, 98.1° (Epoch: 28 July)

Event Time Altitude Azimuth Distance (km) Brightness Sun altitude
Exits shadow 05:23:12 28° 256° (WSW) 1,198 4.1 -26.8°
Maximum altitude 05:23:28 28° 263° (W) 1,193 4.1 -26.8°
Drops below altitude 10° 05:27:20 10° 323° (NW) 2,051 6.2 -27.1°
Sets 05:29:50 0° 335° (NNW) 2,971 7.4 -27.4°
